JE4YIZ-13 Weather Reports


Display with metric or nautical units.
time (UTC)temp
F
wind
direction
speed
MPH
gust
MPH
rain 1hr
in
rain 24hr
in
rain mn
in
humidity
%
barometer
mb
20260507115125 66 181 0.0 2.0 0.00 0.00 0.00 80 1009.4
20260507114656 66 181 0.0 2.0 0.00 0.00 0.00 80 1009.5
20260507114118 66 182 1.0 2.0 0.00 0.00 0.00 80 1009.4
20260507113611 66 181 0.0 0.0 0.00 0.00 0.00 79 1009.4
20260507113124 66 181 0.0 0.0 0.00 0.00 0.00 79 1009.4
20260507112635 66 181 0.0 0.0 0.00 0.00 0.00 79 1009.2
20260507112120 66 182 0.0 0.0 0.00 0.00 0.00 79 1009.2
20260507111612 66 182 0.0 0.0 0.00 0.00 0.00 78 1009.2
20260507111120 66 184 0.0 0.0 0.00 0.00 0.00 78 1009.2
20260507110634 66 184 0.0 0.0 0.00 0.00 0.00 78 1009.2
20260507110119 67 184 0.0 0.0 0.00 0.00 0.00 78 1009.2
20260507105630 67 184 0.0 0.0 0.00 0.00 0.00 78 1009.1
20260507105113 67 184 0.0 0.0 0.00 0.00 0.00 78 1009.1
20260507104624 67 185 0.0 0.0 0.00 0.00 0.00 78 1009.1
20260507104136 67 185 0.0 1.0 0.00 0.00 0.00 78 1009.2
20260507103621 67 184 0.0 1.0 0.00 0.00 0.00 78 1009.2
20260507103127 67 185 0.0 2.0 0.00 0.00 0.00 78 1009.2
20260507102651 67 185 1.0 2.0 0.00 0.00 0.00 77 1009.1
20260507102132 67 185 0.0 3.0 0.00 0.00 0.00 77 1009.0
20260507101620 67 184 1.0 3.0 0.00 0.00 0.00 76 1008.9
20260507101130 68 174 1.0 2.0 0.00 0.00 0.00 76 1008.9
20260507100610 68 174 1.0 2.0 0.00 0.00 0.00 75 1008.9
20260507100119 68 174 1.0 3.0 0.00 0.00 0.00 75 1008.9
20260507095625 69 186 1.0 3.0 0.00 0.00 0.00 74 1008.8
20260507095134 69 181 1.0 2.0 0.00 0.00 0.00 73 1008.8
20260507094616 69 167 0.0 1.0 0.00 0.00 0.00 72 1008.8
20260507094126 70 167 1.0 1.0 0.00 0.00 0.00 71 1008.9
20260507093635 70 167 1.0 2.0 0.00 0.00 0.00 70 1008.8
20260507093117 71 91 1.0 3.0 0.00 0.00 0.00 70 1008.7
20260507092627 71 46 2.0 3.0 0.00 0.00 0.00 69 1008.7
20260507092137 71 86 1.0 3.0 0.00 0.00 0.00 68 1008.7
20260507091615 71 77 2.0 3.0 0.00 0.00 0.00 68 1008.8
20260507091125 72 72 2.0 3.0 0.00 0.00 0.00 67 1008.7
20260507090635 72 90 1.0 3.0 0.00 0.00 0.00 66 1008.7
20260507090117 72 83 2.0 4.0 0.00 0.00 0.00 65 1008.8
20260507085626 73 68 2.0 4.0 0.00 0.00 0.00 64 1008.9
20260507085135 73 71 2.0 4.0 0.00 0.00 0.00 65 1008.7
20260507084616 73 84 1.0 4.0 0.00 0.00 0.00 65 1008.8
20260507084125 73 93 2.0 4.0 0.00 0.00 0.00 64 1008.8
20260507083610 73 92 2.0 3.0 0.00 0.00 0.00 64 1008.8
20260507083139 73 93 1.0 3.0 0.00 0.00 0.00 65 1008.8
20260507082627 72 100 1.0 4.0 0.00 0.00 0.00 66 1008.9
20260507082137 72 101 2.0 4.0 0.00 0.00 0.00 66 1008.8
20260507081619 72 86 2.0 4.0 0.00 0.00 0.00 66 1008.8
20260507081129 72 68 2.0 5.0 0.00 0.00 0.00 67 1008.9
20260507080637 72 106 3.0 5.0 0.00 0.00 0.00 67 1008.8
20260507080136 72 55 3.0 5.0 0.00 0.00 0.00 66 1008.9
20260507075621 72 68 2.0 5.0 0.00 0.00 0.00 66 1008.9
20260507075132 72 67 3.0 5.0 0.00 0.00 0.00 66 1008.9
20260507074614 72 86 3.0 5.0 0.00 0.00 0.00 65 1008.9
20260507074124 72 76 3.0 5.0 0.00 0.00 0.00 65 1009.1
20260507073634 72 71 2.0 5.0 0.00 0.00 0.00 66 1009.0
20260507073114 72 131 2.0 5.0 0.00 0.00 0.00 67 1009.1
20260507072613 72 42 3.0 5.0 0.00 0.00 0.00 67 1009.2
20260507072117 72 76 2.0 4.0 0.00 0.00 0.00 67 1009.2
20260507071626 71 67 2.0 4.0 0.00 0.00 0.00 68 1009.2
20260507071136 71 108 0.0 4.0 0.00 0.00 0.00 69 1009.2
20260507070621 71 176 2.0 4.0 0.00 0.00 0.00 69 1009.2
20260507070129 71 96 2.0 5.0 0.00 0.00 0.00 69 1009.2
20260507065612 70 96 2.0 4.0 0.00 0.00 0.00 70 1009.1
20260507065112 71 119 1.0 3.0 0.00 0.00 0.00 70 1009.1
20260507064622 70 101 2.0 5.0 0.00 0.00 0.00 70 1009.2
20260507064128 71 75 2.0 5.0 0.00 0.00 0.00 70 1009.1
20260507063628 71 44 3.0 5.0 0.00 0.00 0.00 69 1009.3
20260507063157 71 72 3.0 5.0 0.00 0.00 0.00 69 1009.3
20260507062618 71 74 1.0 6.0 0.00 0.00 0.00 69 1009.4
20260507062129 71 73 3.0 9.0 0.00 0.00 0.00 69 1009.3
20260507061637 71 68 5.0 9.0 0.00 0.00 0.00 67 1009.4
20260507061118 71 32 3.0 8.0 0.00 0.00 0.00 67 1009.3
20260507060624 71 37 5.0 8.0 0.00 0.00 0.00 67 1009.4
20260507060133 71 27 5.0 8.0 0.00 0.00 0.00 66 1009.4
20260507055612 71 97 5.0 9.0 0.00 0.00 0.00 65 1009.6
20260507055122 71 57 6.0 9.0 0.00 0.00 0.00 67 1009.4
20260507054632 70 98 5.0 8.0 0.00 0.00 0.00 68 1009.5
20260507054113 70 79 5.0 10.0 0.00 0.00 0.00 67 1009.5
20260507053610 70 63 6.0 10.0 0.00 0.00 0.00 67 1009.6
20260507053117 70 56 5.0 10.0 0.00 0.00 0.00 67 1009.6
20260507052623 70 72 4.0 10.0 0.00 0.00 0.00 67 1009.7
20260507052118 70 84 5.0 10.0 0.00 0.00 0.00 66 1009.7
20260507051628 71 17 6.0 10.0 0.00 0.00 0.00 64 1009.7
20260507051136 71 62 5.0 8.0 0.00 0.00 0.00 65 1009.7
20260507050619 72 60 4.0 9.0 0.00 0.00 0.00 64 1010.0
20260507050126 72 62 4.0 12.0 0.00 0.00 0.00 64 1010.2
20260507045636 72 51 4.0 12.0 0.00 0.00 0.00 63 1010.3
20260507045114 72 92 4.0 9.0 0.00 0.00 0.00 63 1010.4
20260507044636 72 76 4.0 9.0 0.00 0.00 0.00 63 1010.2
20260507044118 72 86 3.0 9.0 0.00 0.00 0.00 63 1010.3
20260507043641 72 349 4.0 9.0 0.00 0.00 0.00 62 1010.3
20260507043129 72 112 4.0 10.0 0.00 0.00 0.00 63 1010.3
20260507042612 72 338 4.0 9.0 0.00 0.00 0.00 62 1010.3
20260507042112 72 59 4.0 8.0 0.00 0.00 0.00 63 1010.3
20260507041617 72 56 5.0 10.0 0.00 0.00 0.00 63 1010.3
20260507041125 71 37 6.0 10.0 0.00 0.00 0.00 64 1010.4
20260507040636 71 30 5.0 9.0 0.00 0.00 0.00 63 1010.6
20260507040116 71 22 4.0 9.0 0.00 0.00 0.00 65 1010.7
20260507035627 71 72 5.0 10.0 0.00 0.00 0.00 64 1010.7
20260507035126 71 65 5.0 9.0 0.00 0.00 0.00 64 1010.9
20260507034635 71 60 5.0 9.0 0.00 0.00 0.00 64 1010.8
20260507034117 71 20 5.0 9.0 0.00 0.00 0.00 64 1010.9
20260507033621 71 87 3.0 8.0 0.00 0.00 0.00 65 1011.0
20260507033130 70 24 4.0 9.0 0.00 0.00 0.00 65 1011.0
20260507032612 70 62 4.0 9.0 0.00 0.00 0.00 67 1011.1
20260507032121 70 34 5.0 8.0 0.00 0.00 0.00 64 1011.1
20260507031652 70 67 5.0 7.0 0.00 0.00 0.00 65 1011.0
20260507031113 71 14 4.0 7.0 0.00 0.00 0.00 64 1011.1
20260507030613 71 93 4.0 7.0 0.00 0.00 0.00 64 1011.2
20260507030137 70 60 4.0 7.0 0.00 0.00 0.00 65 1011.3
20260507025133 69 73 5.0 8.0 0.00 0.00 0.00 66 1011.5
20260507024615 70 62 5.0 8.0 0.00 0.00 0.00 65 1011.6
20260507024124 70 78 5.0 8.0 0.00 0.00 0.00 65 1011.7
20260507023634 70 37 4.0 8.0 0.00 0.00 0.00 65 1011.6
20260507023112 70 32 3.0 7.0 0.00 0.00 0.00 65 1011.7
20260507022623 69 29 3.0 9.0 0.00 0.00 0.00 66 1011.8
20260507022112 69 68 5.0 9.0 0.00 0.00 0.00 66 1011.8
20260507021618 70 28 6.0 8.0 0.00 0.00 0.00 65 1012.0
20260507021129 70 56 6.0 8.0 0.00 0.00 0.00 64 1012.1
20260507020613 70 82 3.0 7.0 0.00 0.00 0.00 64 1012.1
20260507020122 69 98 3.0 7.0 0.00 0.00 0.00 66 1012.1
20260507015616 69 46 4.0 9.0 0.00 0.00 0.00 66 1012.2
20260507015125 69 77 5.0 9.0 0.00 0.00 0.00 65 1012.3
20260507014614 69 41 3.0 7.0 0.00 0.00 0.00 67 1012.3
20260507014120 68 29 3.0 8.0 0.00 0.00 0.00 67 1012.3
20260507013629 69 89 5.0 8.0 0.00 0.00 0.00 66 1012.5
20260507013112 68 3 4.0 7.0 0.00 0.00 0.00 68 1012.7
20260507012621 68 71 3.0 8.0 0.00 0.00 0.00 69 1012.7
20260507012129 68 82 5.0 9.0 0.00 0.00 0.00 68 1012.7
20260507011612 69 39 5.0 8.0 0.00 0.00 0.00 66 1012.7
20260507011122 69 68 4.0 8.0 0.00 0.00 0.00 66 1012.8
20260507010612 69 37 4.0 6.0 0.00 0.00 0.00 66 1012.8
20260507010137 69 79 2.0 7.0 0.00 0.00 0.00 68 1012.7
20260507005624 68 57 2.0 5.0 0.00 0.00 0.00 70 1012.7
20260507005133 68 104 2.0 5.0 0.00 0.00 0.00 69 1012.7
20260507004616 67 136 1.0 5.0 0.00 0.00 0.00 71 1012.8
20260507004124 66 59 3.0 5.0 0.00 0.00 0.00 71 1013.0
20260507003635 66 83 2.0 5.0 0.00 0.00 0.00 72 1013.0
20260507003134 66 83 1.0 3.0 0.00 0.00 0.00 73 1013.0
20260507002613 65 95 1.0 4.0 0.00 0.00 0.00 74 1013.2
20260507002124 65 83 2.0 4.0 0.00 0.00 0.00 73 1013.1
20260507001633 65 113 1.0 3.0 0.00 0.00 0.00 74 1013.0
20260507001113 65 97 1.0 4.0 0.00 0.00 0.00 74 1013.1
20260507000624 65 94 2.0 4.0 0.00 0.00 0.00 74 1013.0
20260507000133 65 76 2.0 6.0 0.00 0.00 0.00 74 1012.9
20260506235634 65 51 3.0 6.0 0.00 0.00 0.00 74 1013.0
20260506235116 65 65 2.0 6.0 0.00 0.00 0.00 74 1013.1
20260506234622 65 29 2.0 8.0 0.00 0.00 0.00 75 1013.1
20260506234134 65 55 4.0 8.0 0.00 0.00 0.00 74 1013.2
20260506233618 65 104 5.0 8.0 0.00 0.00 0.00 74 1013.1
20260506233127 65 68 4.0 7.0 0.00 0.00 0.00 75 1013.1
20260506232635 64 92 2.0 7.0 0.00 0.00 0.00 77 1013.1
20260506232117 64 51 3.0 7.0 0.00 0.00 0.00 78 1013.0
20260506231647 64 79 3.0 9.0 0.00 0.00 0.00 79 1013.1
20260506231133 64 114 5.0 9.0 0.00 0.00 0.00 79 1013.0
20260506230616 64 322 5.0 8.0 0.00 0.00 0.00 79 1013.0
20260506230145 64 75 3.0 8.0 0.00 0.00 0.00 80 1013.1
20260506225655 64 45 3.0 7.0 0.00 0.00 0.00 80 1013.3
20260506225117 64 65 4.0 7.0 0.00 0.00 0.00 80 1013.3
20260506224647 64 60 4.0 8.0 0.00 0.00 0.00 81 1013.3
20260506224136 64 65 4.0 8.0 0.00 0.00 0.00 80 1013.2
20260506223639 65 58 3.0 5.0 0.00 0.00 0.00 80 1013.2
20260506223122 65 75 2.0 4.0 0.00 0.00 0.00 80 1013.2
20260506222631 65 56 2.0 3.0 0.00 0.00 0.00 80 1013.1
20260506222113 64 84 2.0 3.0 0.00 0.00 0.00 81 1013.1
20260506221623 64 290 1.0 3.0 0.00 0.00 0.00 82 1013.1
20260506221131 64 104 0.0 2.0 0.00 0.00 0.00 83 1013.2
20260506220614 63 124 0.0 2.0 0.00 0.00 0.00 84 1013.2
20260506220111 63 180 0.0 1.0 0.00 0.00 0.00 86 1013.2
20260506215621 62 180 0.0 0.0 0.00 0.00 0.00 87 1013.2
20260506215126 62 180 0.0 0.0 0.00 0.00 0.00 89 1013.2
20260506214612 61 180 0.0 0.0 0.00 0.00 0.00 89 1013.1
20260506214122 60 180 0.0 0.0 0.00 0.00 0.00 89 1013.2
20260506213633 59 180 0.0 0.0 0.00 0.00 0.00 89 1013.1
20260506213118 59 180 0.0 0.0 0.00 0.00 0.00 90 1013.1
20260506212630 58 180 0.0 0.0 0.00 0.00 0.00 89 1013.2
20260506212112 58 180 0.0 0.0 0.00 0.00 0.00 89 1013.1
20260506211624 58 180 0.0 0.0 0.00 0.00 0.00 89 1013.1
20260506211132 58 180 0.0 0.0 0.00 0.00 0.00 89 1013.2
20260506210616 57 180 0.0 0.0 0.00 0.00 0.00 89 1013.1
20260506210128 57 180 0.0 0.0 0.00 0.00 0.00 89 1013.2
20260506205612 57 180 0.0 0.0 0.00 0.00 0.00 89 1013.2
20260506205125 57 180 0.0 0.0 0.00 0.00 0.00 89 1013.3
20260506204637 57 180 0.0 0.0 0.00 0.00 0.00 89 1013.3
20260506204124 57 180 0.0 0.0 0.00 0.00 0.00 88 1013.3
20260506203636 57 180 0.0 0.0 0.00 0.00 0.00 88 1013.2
20260506203117 56 180 0.0 0.0 0.00 0.00 0.00 88 1013.0
20260506202610 56 180 0.0 0.0 0.00 0.00 0.00 88 1013.1
20260506201612 56 180 0.0 1.0 0.00 0.00 0.00 87 1013.1
20260506201145 56 180 0.0 1.0 0.00 0.00 0.00 87 1013.0
20260506200634 56 180 0.0 0.0 0.00 0.00 0.00 87 1013.1
20260506200117 56 180 0.0 0.0 0.00 0.00 0.00 87 1013.0
20260506195627 57 180 0.0 1.0 0.00 0.00 0.00 86 1012.9
20260506195137 57 180 0.0 1.0 0.00 0.00 0.00 87 1012.9
20260506194618 57 180 0.0 0.0 0.00 0.00 0.00 86 1012.8
20260506194129 57 180 0.0 1.0 0.00 0.00 0.00 86 1012.8
20260506193636 58 180 0.0 2.0 0.00 0.00 0.00 86 1012.8
20260506193118 58 181 1.0 2.0 0.00 0.00 0.00 86 1012.8
20260506192648 58 181 1.0 2.0 0.00 0.00 0.00 86 1012.8
20260506192137 58 181 1.0 2.0 0.00 0.00 0.00 86 1012.8
20260506191620 58 181 1.0 2.0 0.00 0.00 0.00 86 1012.9
20260506191129 58 181 0.0 2.0 0.00 0.00 0.00 86 1012.8
20260506190634 58 182 1.0 2.0 0.00 0.00 0.00 87 1012.8
20260506190115 57 180 1.0 1.0 0.00 0.00 0.00 87 1012.9
20260506185625 57 180 0.0 1.0 0.00 0.00 0.00 86 1012.9
20260506185136 57 180 0.0 1.0 0.00 0.00 0.00 85 1012.9
20260506184619 57 180 0.0 1.0 0.00 0.00 0.00 86 1013.0
20260506184128 57 180 0.0 1.0 0.00 0.00 0.00 85 1013.0
20260506183637 58 180 0.0 1.0 0.00 0.00 0.00 85 1013.0
20260506183119 58 180 0.0 2.0 0.00 0.00 0.00 85 1013.0
20260506182625 58 180 1.0 2.0 0.00 0.00 0.00 86 1013.1
20260506182134 57 180 0.0 1.0 0.00 0.00 0.00 86 1013.0
20260506181616 57 181 1.0 1.0 0.00 0.00 0.00 86 1013.1
20260506181128 57 180 0.0 0.0 0.00 0.00 0.00 85 1013.0
20260506180611 57 180 0.0 1.0 0.00 0.00 0.00 85 1013.0
20260506180119 58 180 0.0 1.0 0.00 0.00 0.00 85 1013.0
20260506175628 58 181 1.0 1.0 0.00 0.00 0.00 85 1013.0
20260506175133 58 180 0.0 1.0 0.00 0.00 0.00 85 1013.2
20260506174615 58 189 0.0 0.0 0.00 0.00 0.00 84 1013.2
20260506174127 58 189 0.0 0.0 0.00 0.00 0.00 85 1013.3
20260506173637 58 189 0.0 0.0 0.00 0.00 0.00 84 1013.4
20260506173111 59 189 0.0 1.0 0.00 0.00 0.00 84 1013.3
20260506172622 59 190 0.0 1.0 0.00 0.00 0.00 84 1013.5
20260506172131 59 190 0.0 1.0 0.00 0.00 0.00 84 1013.5
20260506171613 59 190 1.0 2.0 0.00 0.00 0.00 84 1013.5
20260506171141 60 190 2.0 3.0 0.00 0.00 0.00 84 1013.5
20260506170112 60 171 1.0 1.0 0.00 0.00 0.00 83 1013.5
20260506165611 60 171 0.0 1.0 0.00 0.00 0.00 83 1013.6
20260506165120 61 177 0.0 2.0 0.00 0.00 0.00 83 1013.7
20260506164633 61 177 0.0 2.0 0.00 0.00 0.00 83 1013.8
20260506164115 61 165 0.0 4.0 0.00 0.00 0.00 83 1013.8
20260506163624 61 165 0.0 4.0 0.00 0.00 0.00 83 1013.8
20260506163112 61 170 0.0 2.0 0.00 0.00 0.00 83 1013.8
20260506162617 61 193 1.0 4.0 0.00 0.00 0.00 82 1013.7
20260506162125 61 186 1.0 4.0 0.00 0.00 0.00 82 1013.7
20260506161634 61 150 1.0 3.0 0.00 0.00 0.00 82 1013.7
20260506161117 61 188 1.0 4.0 0.00 0.00 0.00 82 1013.8
20260506160647 61 165 1.0 3.0 0.00 0.00 0.00 82 1013.9
20260506160156 61 188 1.0 3.0 0.00 0.00 0.00 82 1014.0
20260506155616 61 110 1.0 3.0 0.00 0.00 0.00 82 1014.0
20260506155123 61 165 1.0 3.0 0.00 0.00 0.00 82 1014.1
20260506154631 61 181 1.0 2.0 0.00 0.00 0.00 81 1014.0
20260506154115 61 143 1.0 3.0 0.00 0.00 0.00 81 1014.1
20260506153645 62 181 1.0 2.0 0.00 0.00 0.00 81 1014.1
20260506153132 62 169 1.0 2.0 0.00 0.00 0.00 81 1014.2
20260506152613 62 122 1.0 2.0 0.00 0.00 0.00 81 1014.1
20260506151614 62 288 2.0 5.0 0.00 0.00 0.00 80 1014.1
20260506151145 62 131 1.0 4.0 0.00 0.00 0.00 80 1014.1
20260506150629 62 132 1.0 5.0 0.00 0.00 0.00 80 1014.2
20260506150137 62 178 1.0 6.0 0.00 0.00 0.00 80 1014.1
20260506145619 62 167 1.0 5.0 0.00 0.00 0.00 80 1014.2
20260506144620 62 111 1.0 4.0 0.00 0.00 0.00 79 1014.3
20260506144129 62 137 1.0 4.0 0.00 0.00 0.00 78 1014.3
20260506143612 62 169 1.0 4.0 0.00 0.00 0.00 78 1014.3
20260506143142 62 193 1.0 3.0 0.00 0.00 0.00 78 1014.2
20260506142611 62 195 1.0 3.0 0.00 0.00 0.00 78 1014.4
20260506142117 62 143 0.0 3.0 0.00 0.00 0.00 78 1014.4
20260506141628 62 161 0.0 4.0 0.00 0.00 0.00 78 1014.5
20260506141137 62 89 0.0 4.0 0.00 0.00 0.00 78 1014.5
20260506140640 62 135 1.0 4.0 0.00 0.00 0.00 78 1014.5
20260506140127 62 171 1.0 4.0 0.00 0.00 0.00 78 1014.5
20260506135636 62 171 0.0 2.0 0.00 0.00 0.00 78 1014.5
20260506135118 62 162 0.0 2.0 0.00 0.00 0.00 78 1014.6
20260506134616 61 143 0.0 2.0 0.00 0.00 0.00 78 1014.5
20260506134147 61 176 0.0 2.0 0.00 0.00 0.00 78 1014.6
20260506133637 61 169 0.0 1.0 0.00 0.00 0.00 77 1014.4
20260506133117 62 170 0.0 1.0 0.00 0.00 0.00 77 1014.5
20260506132624 62 170 0.0 1.0 0.00 0.00 0.00 76 1014.5
20260506132136 62 170 0.0 2.0 0.00 0.00 0.00 76 1014.5
20260506131619 62 167 0.0 1.0 0.00 0.00 0.00 76 1014.5
20260506131129 63 174 0.0 3.0 0.00 0.00 0.00 75 1014.5
20260506130634 63 138 0.0 1.0 0.00 0.00 0.00 75 1014.7
20260506125656 63 169 0.0 3.0 0.00 0.00 0.00 75 1014.7
20260506125140 63 186 2.0 3.0 0.00 0.00 0.00 75 1014.7
20260506124628 63 173 0.0 4.0 0.00 0.00 0.00 74 1014.6
20260506124111 63 333 0.0 3.0 0.00 0.00 0.00 74 1014.7
20260506123642 63 174 0.0 2.0 0.00 0.00 0.00 74 1014.6
20260506123111 63 165 0.0 2.0 0.00 0.00 0.00 73 1014.6
20260506122620 63 154 0.0 2.0 0.00 0.00 0.00 73 1014.5
20260506122146 63 162 1.0 3.0 0.00 0.00 0.00 73 1014.5
20260506121634 63 184 1.0 4.0 0.00 0.00 0.00 73 1014.5
20260506121117 63 205 1.0 4.0 0.00 0.00 0.00 73 1014.3
20260506120648 63 186 1.0 4.0 0.00 0.00 0.00 73 1014.2
20260506120156 63 186 0.0 3.0 0.00 0.00 0.00 72 1014.1
20260506115615 63 190 1.0 4.0 0.00 0.00 0.00 72 1014.2